STARLINK-5840, 57231

Orbit data source: Space-Track

STARLINK-5840, 57231 is a payload satellite owned by SpaceX/Seattle (US) in LEO that was launched on Fri, 07 Jul 2023 UTC via an FALCON 9 launch vehicle from the Air Force Western Test Range (AFWTR). Payload-class satellites include a variety of spacecraft equipped with specific instruments for various scientific and technological missions. These include communications satellites like Starlink; space stations such as the ISS; scientific satellites like the Hubble; Earth observation satellites from companies like Planet Labs, Umbra, and HawkEye 360; GPS; miniature CubeSats for education and research; and military/defense satellites.

Loading next visibility...
Identifier
57231, 2023-094P
Orbit
LEO
Country
Flag of USUS
Related business
Manufacturer
SpaceX/Seattle
Mission
Operational Commercial Communications
Bus & Motor
STARLINK, Unknown motor
Mass
305 kg wet, ~290 kg dry
Launch date (UTC)
2023-07-07 (3 years ago)
Launch vehicle
FALCON 9
Launch site
Air Force Western Test Range (AFWTR)
Object type
Payload
Rocket body
Debris
Shape & HBR
Box + 1 Pan, 10.1 m
Radar Cross Section
11.087 m², Large (>1 m²)

Expand to show TLE details & history
Last TLE update: 10 hours ago

TLE from 10 hours ago
0 STARLINK-5840
1 57231U 23094P   26167.75086644  .00000363  00000-0  22709-4 0  9994
2 57231  43.0012 191.4370 0001278 275.0661  85.0045 15.27576709162268
Epoch: 2026-06-16T18:01Z
TLE epoch observation values (Epoch: 2026-06-16T18:01:14.860Z)
Latitude
-0°
Longitude
16.10667°
Altitude
482.758 km
Speed
7.626 km/s
True Right ascension
12h 45m 44s
True Declination
0° 00' 00"
Sunlit
Object was in daylight at epoch
Visualization orbit readout
Latitude
Unknown
Longitude
Unknown
Altitude
Unknown
Speed
Unknown
Apparent Right ascension
Unknown
Apparent Declination
Unknown
Sunlit
N/A
Visualization observer readout
Local Sidereal Time
14:32:30
Azimuth
Unknown
Elevation
Unknown
Doppler factor
Unknown
Orbital elements
Apogee altitude
485.881 km
Perigee altitude
484.127 km
Semi-major axis
6,863.141 km
Eccentricity
0.00013
Inclination
43.0012°
RAAN
191.437°
Arg. of periapsis
275.0661°
True anomaly
85.01909°
Mean anomaly
85.0045°
Eccentric anomaly
85.01179°
Mean motion
3.81732 °/min
Orbital period
94.31 mins
BSTAR
0.000022709
Loading maneuver chart data...
Computing Atmospheric mass density...
Loading historical data...
Loading historical data...
Loading historical data...
Loading historical data...
Loading historical data...
Loading historical data...
Loading historical data...

Documentation

Showing up to 5 results
|